period_start,C,m1,H,J0,J1,J2,J3,J4,J5,JA,JB,JC,JD,JJ,JK,JN,#
2015-06-08 00:00:27,0.06,0.57,0.00,28.41,32.79,35.19,4.66,26.00,1012.03,2011.86,3218.03,3112.99,3372.00,349.70,339.64,16.09,0000 0000 0000 0000 000000
2015-06-08 00:05:28,0.01,0.57,0.00,28.36,32.76,35.16,4.63,26.04,1012.12,2011.98,3218.03,3112.99,3372.00,349.66,339.66,16.12,0000 0000 0000 0000 000000
2015-06-08 00:10:30,-0.00,0.57,0.00,28.34,32.73,35.14,4.68,26.08,1012.19,2011.99,3218.03,3112.99,3372.08,350.16,340.22,16.15,0000 0000 0000 0000 000000
2015-06-08 00:15:31,-0.01,0.57,0.00,28.31,32.69,35.10,4.66,26.12,1012.06,2011.99,3218.04,3113.02,3372.41,349.87,339.80,16.17,0000 0000 0000 0000 000000
2015-06-08 00:20:32,0.00,0.57,0.00,28.29,32.66,35.06,4.64,26.10,1011.89,2012.07,3218.05,3113.13,3372.82,350.05,340.10,16.20,0000 0000 0000 0000 000000
2015-06-08 00:25:33,0.04,0.57,0.00,28.25,32.62,35.03,4.68,26.06,1012.18,2012.41,3218.11,3113.58,3372.98,349.66,339.80,16.23,0000 0000 0000 0000 000000
2015-06-08 00:30:34,0.04,0.57,0.00,28.22,32.59,35.00,4.64,26.05,1012.15,2012.88,3218.10,3113.88,3372.99,349.55,339.63,16.26,0000 0000 0000 0000 000000
2015-06-08 00:35:36,0.01,0.57,0.00,28.19,32.56,34.97,4.65,25.98,1012.21,2012.98,3218.07,3113.96,3372.99,349.67,340.02,16.29,0000 0000 0000 0000 000000
2015-06-08 00:40:37,0.00,0.57,0.00,28.16,32.52,34.94,4.66,26.06,1012.22,2012.99,3218.02,3113.97,3372.99,349.83,340.00,16.32,0000 0000 0000 0000 000000
2015-06-08 00:45:38,0.00,0.57,0.00,28.12,32.49,34.90,4.68,26.02,1012.25,2012.99,3218.00,3113.96,3373.00,349.97,340.35,16.35,0000 0000 0000 0000 000000
2015-06-08 00:50:40,0.00,0.57,0.00,28.10,32.46,34.87,4.67,26.05,1012.24,2013.01,3217.97,3113.96,3373.00,349.98,340.15,16.38,0000 0000 0000 0000 000000
2015-06-08 00:55:41,0.03,0.57,0.00,28.06,32.42,34.84,4.62,26.06,1012.24,2013.10,3217.51,3113.89,3373.00,349.93,340.36,16.41,0000 0000 0000 0000 000000
2015-06-08 01:00:43,0.08,0.57,0.00,28.03,32.39,34.80,4.66,26.19,1012.24,2013.37,3217.05,3113.80,3372.99,350.04,340.44,16.44,0000 0000 0000 0000 000000
2015-06-08 01:05:44,0.05,0.57,0.00,28.01,32.36,34.78,4.72,26.13,1012.22,2013.83,3217.01,3113.92,3372.99,350.03,340.43,16.47,0000 0000 0000 0000 000000
2015-06-08 01:10:45,0.01,0.57,0.00,27.97,32.32,34.75,4.65,26.13,1012.22,2013.98,3217.02,3113.98,3373.00,349.94,340.33,16.50,0000 0000 0000 0000 000000
2015-06-08 01:15:47,-0.00,0.57,0.00,27.94,32.29,34.73,4.69,26.07,1012.23,2013.99,3217.01,3113.99,3373.08,350.12,340.32,16.53,0000 0000 0000 0000 000000
2015-06-08 01:20:48,0.00,0.57,0.00,27.91,32.26,34.69,4.66,26.09,1012.24,2014.00,3217.00,3113.99,3373.23,349.90,340.45,16.56,0000 0000 0000 0000 000000
2015-06-08 01:25:49,0.02,0.57,0.00,27.88,32.22,34.67,4.69,26.13,1012.29,2014.10,3217.00,3114.00,3373.46,349.90,340.27,16.58,0000 0000 0000 0000 000000
2015-06-08 01:30:50,0.06,0.58,0.00,27.84,32.19,34.63,4.70,26.09,1012.24,2014.40,3216.97,3113.99,3373.27,350.23,340.97,16.61,0000 0000 0000 0000 000000
2015-06-08 01:35:51,0.06,0.58,0.00,27.81,32.16,34.59,4.72,26.16,1012.23,2014.86,3216.96,3113.99,3373.38,350.56,341.20,16.64,0000 0000 0000 0000 000000
2015-06-08 01:40:53,-0.01,0.58,0.00,27.77,32.12,34.55,4.61,26.17,1012.22,2014.98,3216.98,3114.03,3373.89,349.65,340.62,16.67,0000 0000 0000 0000 000000
2015-06-08 01:45:54,-0.01,0.58,0.00,27.74,32.09,34.55,4.66,26.12,1012.21,2014.99,3216.99,3114.22,3373.99,349.72,340.63,16.70,0000 0000 0000 0000 000000
2015-06-08 01:50:55,0.00,0.58,0.00,27.71,32.06,34.50,4.71,26.12,1012.19,2015.00,3216.98,3114.36,3373.99,350.04,340.70,16.73,0000 0000 0000 0000 000000
2015-06-08 01:55:56,-0.01,0.58,0.00,27.69,32.02,34.47,4.66,26.08,1012.16,2015.06,3216.98,3114.77,3373.99,349.91,340.66,16.76,0000 0000 0000 0000 000000
2015-06-08 02:00:58,0.05,0.58,0.00,27.65,31.99,34.44,4.74,26.08,1012.07,2015.33,3216.99,3114.92,3374.01,350.39,341.16,16.79,0000 0000 0000 0000 000000
2015-06-08 02:05:59,0.06,0.58,0.00,27.62,31.96,34.41,4.61,26.06,1012.10,2015.89,3217.00,3114.98,3374.43,349.69,340.52,16.82,0000 0000 0000 0000 000000
2015-06-08 02:11:00,-0.00,0.58,0.00,27.60,31.92,34.38,4.64,26.00,1012.07,2015.99,3217.07,3115.02,3374.94,349.77,340.79,16.85,0000 0000 0000 0000 000000
2015-06-08 02:16:01,-0.01,0.58,0.00,27.57,31.89,34.35,4.75,26.07,1012.08,2015.99,3217.28,3115.15,3374.99,350.67,341.53,16.88,0000 0000 0000 0000 000000
2015-06-08 02:21:03,-0.03,0.58,0.00,27.53,31.86,34.32,4.71,26.09,1012.15,2015.99,3217.61,3115.57,3375.02,349.98,340.92,16.91,0000 0000 0000 0000 000000
2015-06-08 02:26:04,-0.01,0.58,0.00,27.50,31.83,34.29,4.71,26.03,1012.01,2016.02,3217.92,3115.95,3375.17,349.90,340.93,16.94,0000 0000 0000 0000 000000
2015-06-08 02:31:05,0.02,0.58,0.00,27.48,31.79,34.26,4.69,26.08,1011.89,2016.20,3217.98,3115.99,3375.74,350.16,340.99,16.97,0000 0000 0000 0000 000000
2015-06-08 02:36:06,0.08,0.58,0.00,27.45,31.76,34.23,4.76,26.17,1012.12,2016.68,3217.99,3116.00,3375.98,350.34,341.58,16.99,0000 0000 0000 0000 000000
2015-06-08 02:41:07,0.02,0.58,0.00,27.42,31.73,34.20,4.70,26.11,1012.19,2016.94,3217.99,3116.04,3375.99,350.15,341.32,17.02,0000 0000 0000 0000 000000
2015-06-08 02:46:08,-0.02,0.58,0.00,27.40,31.70,34.16,4.65,26.12,1012.21,2016.98,3218.02,3116.41,3376.01,349.56,340.58,17.05,0000 0000 0000 0000 000000
2015-06-08 02:51:10,-0.02,0.58,0.00,27.37,31.67,34.14,4.66,26.02,1012.22,2016.99,3218.13,3116.87,3376.18,350.19,341.39,17.08,0000 0000 0000 0000 000000
2015-06-08 02:56:11,-0.02,0.58,0.00,27.34,31.64,34.11,4.64,26.15,1012.22,2017.00,3218.44,3116.98,3376.74,349.64,340.90,17.11,0000 0000 0000 0000 000000
2015-06-08 03:01:12,-0.01,0.58,0.00,27.32,31.61,34.08,4.64,26.15,1012.22,2017.03,3218.58,3116.99,3376.93,349.82,341.18,17.14,0000 0000 0000 0000 000000
2015-06-08 03:06:13,0.02,0.58,0.00,27.29,31.57,34.03,4.68,26.16,1012.22,2017.21,3218.96,3117.02,3376.99,349.83,341.01,17.17,0000 0000 0000 0000 000000
2015-06-08 03:11:14,0.06,0.58,0.00,27.26,31.54,34.02,4.65,26.11,1012.22,2017.77,3218.99,3117.41,3377.04,349.98,341.24,17.20,0000 0000 0000 0000 000000
2015-06-08 03:16:15,-0.01,0.58,0.00,27.23,31.51,33.98,4.64,26.15,1012.22,2017.93,3219.00,3117.86,3377.36,349.79,341.11,17.23,0000 0000 0000 0000 000000
2015-06-08 03:21:17,-0.01,0.58,0.00,27.20,31.48,33.96,4.72,26.14,1012.22,2017.98,3219.02,3117.98,3377.89,350.48,341.75,17.26,0000 0000 0000 0000 000000
2015-06-08 03:26:18,0.01,0.58,0.00,27.19,31.45,33.93,4.69,26.02,1012.22,2017.99,3219.00,3117.95,3377.63,350.11,341.47,17.29,0000 0000 0000 0000 000000
2015-06-08 03:31:19,0.00,0.58,0.00,27.16,31.42,33.91,4.67,26.12,1012.23,2017.99,3218.95,3117.91,3377.40,349.92,341.19,17.32,0000 0000 0000 0000 000000
2015-06-08 03:36:21,-0.01,0.58,0.00,27.13,31.39,33.86,4.64,26.07,1012.22,2018.00,3218.98,3117.98,3377.87,349.62,341.08,17.35,0000 0000 0000 0000 000000
2015-06-08 03:41:22,0.01,0.58,0.00,27.10,31.37,33.85,4.73,26.11,1012.22,2018.09,3218.99,3117.99,3377.98,349.75,341.05,17.38,0000 0000 0000 0000 000000
2015-06-08 03:46:23,0.03,0.58,0.00,27.07,31.34,33.81,4.63,26.08,1012.18,2018.36,3218.98,3117.99,3377.99,349.36,340.77,17.40,0000 0000 0000 0000 000000
2015-06-08 03:51:24,0.09,0.59,0.00,27.05,31.31,33.78,4.72,26.10,1012.17,2018.82,3218.98,3118.00,3377.99,350.11,341.55,17.43,0000 0000 0000 0000 000000
2015-06-08 03:56:25,0.00,0.59,0.00,27.03,31.28,33.75,4.71,26.15,1012.21,2018.93,3218.98,3118.02,3378.00,350.11,341.70,17.46,0000 0000 0000 0000 000000
2015-06-08 04:01:26,0.00,0.59,0.00,27.00,31.25,33.73,4.65,26.06,1012.15,2018.97,3218.98,3118.11,3378.04,349.24,341.14,17.49,0000 0000 0000 0000 000000
2015-06-08 04:06:28,-0.04,0.59,0.00,26.97,31.22,33.70,4.67,26.07,1012.03,2018.99,3218.99,3118.63,3378.52,349.99,341.54,17.52,0000 0000 0000 0000 000000
2015-06-08 04:11:29,-0.01,0.58,0.00,26.94,31.19,33.69,4.68,26.18,1011.80,2019.00,3219.00,3118.96,3378.93,350.11,341.65,17.55,0000 0000 0000 0000 000000
2015-06-08 04:16:30,0.02,0.59,0.00,26.92,31.16,33.65,4.68,26.10,1011.76,2019.10,3219.05,3118.99,3378.99,349.81,341.44,17.58,0000 0000 0000 0000 000000
2015-06-08 04:21:31,0.05,0.59,0.00,26.90,31.14,33.62,4.69,26.11,1011.75,2019.41,3219.18,3119.00,3378.99,349.83,341.30,17.61,0000 0000 0000 0000 000000
2015-06-08 04:26:32,0.02,0.59,0.00,26.87,31.11,33.60,4.60,26.13,1011.75,2019.75,3219.40,3119.03,3379.02,349.54,341.11,17.64,0000 0000 0000 0000 000000
2015-06-08 04:31:34,0.02,0.59,0.00,26.85,31.08,33.57,4.70,26.14,1011.73,2019.87,3219.49,3119.10,3379.13,349.97,341.53,17.67,0000 0000 0000 0000 000000
2015-06-08 04:36:35,-0.04,0.59,0.00,26.82,31.05,33.56,4.65,26.07,1011.73,2019.98,3219.91,3119.63,3379.68,349.87,341.40,17.70,0000 0000 0000 0000 000000
2015-06-08 04:41:37,-0.01,0.59,0.00,26.80,31.02,33.52,4.72,26.13,1011.73,2019.99,3219.97,3119.93,3379.95,350.34,342.18,17.73,0000 0000 0000 0000 000000
2015-06-08 04:46:38,0.00,0.59,0.00,26.77,31.00,33.52,4.67,26.09,1011.71,2019.99,3219.99,3119.99,3379.99,349.88,341.51,17.76,0000 0000 0000 0000 000000
2015-06-08 04:51:39,0.00,0.59,0.00,26.75,30.96,33.47,4.67,26.05,1011.64,2020.01,3219.99,3119.99,3379.99,349.90,341.59,17.79,0000 0000 0000 0000 000000
2015-06-08 04:56:41,0.01,0.59,0.00,26.72,30.94,33.44,4.75,26.23,1011.33,2020.06,3220.00,3120.00,3380.04,350.21,341.80,17.81,0000 0000 0000 0000 000000
2015-06-08 05:01:42,0.02,0.59,0.00,26.70,30.91,33.43,4.63,26.08,1011.35,2020.20,3220.00,3120.04,3380.10,349.74,341.40,17.84,0000 0000 0000 0000 000000
2015-06-08 05:06:44,0.03,0.59,0.00,26.70,30.88,33.41,4.70,26.07,1011.45,2020.64,3220.17,3120.45,3380.66,350.00,341.66,17.87,0000 0000 0000 0000 000000
2015-06-08 05:11:45,-0.00,0.59,0.00,26.66,30.86,33.37,4.73,26.14,1011.60,2020.92,3220.52,3120.92,3380.97,350.03,341.91,17.90,0000 0000 0000 0000 000000
2015-06-08 05:16:46,-0.00,0.59,0.00,26.64,30.83,33.34,4.64,26.07,1011.47,2020.97,3220.85,3120.99,3380.99,349.33,340.99,17.93,0000 0000 0000 0000 000000
2015-06-08 05:21:47,0.00,0.59,0.00,26.61,30.80,33.32,4.67,26.02,1011.27,2020.99,3220.93,3120.99,3380.99,349.48,341.26,17.96,0000 0000 0000 0000 000000
2015-06-08 05:26:49,-0.00,0.59,0.00,26.58,30.78,33.29,4.68,26.03,1011.29,2021.00,3220.97,3121.00,3381.05,349.87,341.57,17.99,0000 0000 0000 0000 000000
2015-06-08 05:31:50,-0.01,0.59,0.00,26.55,30.75,33.28,4.73,26.15,1011.29,2021.02,3220.99,3121.07,3381.50,349.63,341.21,18.02,0000 0000 0000 0000 000000
2015-06-08 05:36:51,-0.01,0.59,0.00,26.53,30.72,33.24,4.64,26.09,1011.26,2021.10,3220.99,3121.32,3381.87,350.10,341.90,18.05,0000 0000 0000 0000 000000
2015-06-08 05:41:53,0.03,0.59,0.00,26.51,30.70,33.22,4.68,26.11,1011.25,2021.38,3221.00,3121.73,3381.97,349.87,341.68,18.08,0000 0000 0000 0000 000000
2015-06-08 05:46:54,0.06,0.59,0.00,26.49,30.67,33.21,4.68,26.09,1011.25,2021.84,3221.02,3121.94,3381.99,350.20,342.02,18.11,0000 0000 0000 0000 000000
2015-06-08 05:51:55,0.01,0.59,0.00,26.46,30.64,33.13,4.73,26.07,1011.27,2021.97,3221.05,3121.99,3382.00,350.29,342.03,18.14,0000 0000 0000 0000 000000
2015-06-08 05:56:56,-0.00,0.59,0.00,26.42,30.61,33.10,4.68,26.19,1011.26,2021.99,3221.20,3121.99,3382.09,349.82,341.52,18.17,0000 0000 0000 0000 000000
2015-06-08 06:01:58,-0.03,0.59,0.00,26.40,30.59,33.03,4.72,26.10,1011.26,2021.99,3221.56,3122.04,3382.46,350.41,342.34,18.20,0000 0000 0000 0000 000000
2015-06-08 06:06:59,-0.02,0.59,0.00,26.39,30.56,33.04,4.68,26.13,1011.25,2022.00,3221.93,3122.19,3382.91,350.27,341.96,18.22,0000 0000 0000 0000 000000
2015-06-08 06:12:00,-0.03,0.59,0.00,26.40,30.53,33.02,4.66,26.13,1011.26,2022.01,3221.98,3122.69,3382.98,350.05,342.03,18.25,0000 0000 0000 0000 000000
2015-06-08 06:17:01,0.01,0.59,0.00,26.40,30.51,32.99,4.72,26.06,1011.27,2022.10,3221.99,3122.91,3382.99,349.57,341.58,18.28,0000 0000 0000 0000 000000
2015-06-08 06:22:02,0.05,0.59,0.00,26.38,30.49,32.96,4.71,26.08,1011.26,2022.30,3222.00,3122.99,3383.02,349.73,341.80,18.31,0000 0000 0000 0000 000000
2015-06-08 06:27:04,0.04,0.59,0.00,26.37,30.46,32.97,4.75,26.13,1011.24,2022.72,3222.07,3122.99,3383.28,350.14,342.02,18.34,0000 0000 0000 0000 000000
2015-06-08 06:32:05,-0.00,0.59,0.00,26.37,30.44,32.94,4.73,26.09,1011.21,2022.96,3222.28,3123.02,3383.86,350.08,341.65,18.37,0000 0000 0000 0000 000000
2015-06-08 06:37:06,-0.02,0.59,0.00,26.28,30.41,32.91,4.63,26.10,1011.18,2022.98,3222.58,3123.14,3383.96,349.50,341.91,18.40,0000 0000 0000 0000 000000
2015-06-08 06:42:07,-0.02,0.59,0.00,26.08,30.39,32.96,4.69,26.04,1011.24,2022.99,3222.74,3123.50,3383.99,349.96,342.21,18.43,0000 0000 0000 0000 000000
2015-06-08 06:47:08,-0.02,0.59,0.00,25.95,30.35,32.92,4.64,26.06,1011.23,2022.99,3222.91,3123.92,3384.00,349.65,342.09,18.46,0000 0000 0000 0000 000000
2015-06-08 06:52:10,-0.00,0.59,0.00,25.90,30.31,32.79,4.67,26.11,1011.19,2023.05,3222.99,3123.99,3384.39,349.62,342.15,18.49,0000 0000 0000 0000 000000
2015-06-08 06:57:11,0.01,0.59,0.00,25.87,30.27,32.69,4.69,26.13,1011.22,2023.20,3222.99,3124.01,3384.90,349.73,342.20,18.52,0000 0000 0000 0000 000000
2015-06-08 07:02:12,0.06,0.59,0.00,25.84,30.23,32.64,4.75,26.13,1010.98,2023.58,3223.06,3124.26,3384.98,350.00,342.41,18.55,0000 0000 0000 0000 000000
2015-06-08 07:07:13,-0.01,0.59,0.00,25.82,30.18,32.61,4.64,26.13,1010.80,2023.98,3223.57,3124.92,3385.01,349.72,342.24,18.58,0000 0000 0000 0000 000000
2015-06-08 07:12:15,-0.03,0.59,0.00,25.80,30.14,32.53,4.70,26.14,1010.77,2023.99,3223.96,3124.99,3385.56,350.05,342.59,18.61,0000 0000 0000 0000 000000
2015-06-08 07:17:16,-0.00,0.59,0.00,25.79,30.10,32.50,4.68,26.16,1010.74,2024.00,3223.99,3125.03,3385.96,349.53,342.11,18.63,0000 0000 0000 0000 000000
2015-06-08 07:22:17,-0.02,0.59,0.00,25.77,30.06,32.43,4.68,26.20,1010.69,2024.05,3224.01,3125.45,3386.00,349.84,342.33,18.66,0000 0000 0000 0000 000000
2015-06-08 07:27:18,0.06,0.59,0.00,25.77,30.02,32.40,4.66,26.09,1010.76,2024.55,3224.39,3125.97,3386.34,349.99,342.52,18.69,0000 0000 0000 0000 000000
2015-06-08 07:32:20,0.01,0.59,0.00,25.77,29.98,32.35,4.68,26.12,1010.76,2024.90,3224.80,3125.99,3386.86,349.95,342.45,18.72,0000 0000 0000 0000 000000
2015-06-08 07:37:21,-0.00,0.59,0.00,25.75,29.94,32.32,4.71,26.07,1010.77,2024.98,3224.95,3126.01,3386.98,349.79,342.38,18.75,0000 0000 0000 0000 000000
2015-06-08 07:42:22,-0.01,0.59,0.00,25.75,29.91,32.28,4.67,26.10,1010.77,2024.99,3224.99,3126.29,3386.99,349.96,342.49,18.78,0000 0000 0000 0000 000000
2015-06-08 07:47:23,-0.01,0.59,0.00,25.73,29.88,32.26,4.70,26.10,1010.72,2024.99,3224.99,3126.71,3387.02,350.65,343.16,18.81,0000 0000 0000 0000 000000
2015-06-08 07:52:25,-0.01,0.59,0.00,25.72,29.85,32.25,4.71,26.12,1010.65,2025.00,3225.02,3126.95,3387.33,349.95,342.44,18.84,0000 0000 0000 0000 000000
2015-06-08 07:57:26,-0.01,0.59,0.00,25.70,29.82,32.20,4.66,26.18,1010.75,2025.04,3225.04,3126.99,3387.82,350.11,342.70,18.87,0000 0000 0000 0000 000000
2015-06-08 08:02:27,0.01,0.59,0.00,25.69,29.79,32.21,4.71,26.14,1010.72,2025.10,3225.16,3126.99,3387.94,350.12,342.68,18.90,0000 0000 0000 0000 000000
2015-06-08 08:07:28,0.07,0.59,0.00,25.67,29.77,32.19,4.73,26.12,1010.67,2025.55,3225.68,3127.02,3387.99,350.53,342.99,18.93,0000 0000 0000 0000 000000
2015-06-08 08:12:29,0.01,0.59,0.00,25.67,29.75,32.18,4.72,26.21,1010.76,2025.88,3225.94,3127.29,3388.01,349.68,342.23,18.96,0000 0000 0000 0000 000000
2015-06-08 08:17:30,-0.01,0.59,0.00,25.65,29.72,32.16,4.72,26.16,1010.76,2025.98,3225.98,3127.81,3388.11,350.12,342.78,18.99,0000 0000 0000 0000 000000
2015-06-08 08:22:31,-0.02,0.59,0.00,25.64,29.70,32.16,4.70,26.20,1010.76,2025.99,3226.00,3127.98,3388.73,349.33,342.03,19.02,0000 0000 0000 0000 000000
2015-06-08 08:27:32,-0.00,0.59,0.00,25.62,29.67,32.13,4.69,26.19,1010.76,2025.99,3226.01,3127.99,3388.94,350.09,342.73,19.05,0000 0000 0000 0000 000000
2015-06-08 08:32:34,-0.00,0.59,0.00,25.62,29.65,32.13,4.75,26.23,1010.76,2026.00,3226.02,3127.99,3388.99,350.01,342.58,19.07,0000 0000 0000 0000 000000
2015-06-08 08:37:35,-0.01,0.59,0.00,25.59,29.62,32.11,4.63,26.15,1010.77,2026.02,3226.34,3128.00,3388.99,349.54,342.13,19.10,0000 0000 0000 0000 000000
2015-06-08 08:42:36,0.01,0.59,0.00,25.57,29.60,32.09,4.76,26.16,1011.10,2026.07,3226.61,3128.09,3389.00,349.92,342.75,19.13,0000 0000 0000 0000 000000
2015-06-08 08:47:37,-0.00,0.59,0.00,25.55,29.58,32.08,4.72,26.14,1011.25,2026.27,3226.88,3128.49,3389.12,350.18,342.90,19.16,0000 0000 0000 0000 000000
2015-06-08 08:52:38,0.05,0.59,0.00,25.52,29.56,32.06,4.67,26.05,1011.00,2026.64,3226.97,3128.84,3389.56,349.62,342.33,19.19,0000 0000 0000 0000 000000
2015-06-08 08:57:39,-0.00,0.59,0.00,25.50,29.54,32.04,4.70,26.27,1010.79,2026.84,3226.97,3128.97,3389.89,349.86,342.51,19.22,0000 0000 0000 0000 000000
2015-06-08 09:02:40,0.02,0.59,0.00,25.48,29.52,32.03,4.71,26.16,1011.14,2026.94,3226.98,3128.99,3389.97,350.15,343.09,19.25,0000 0000 0000 0000 000000
2015-06-08 09:07:42,0.00,0.59,0.00,25.47,29.50,32.01,4.66,26.13,1010.83,2026.98,3226.99,3128.99,3389.99,349.57,342.56,19.28,0000 0000 0000 0000 000000
2015-06-08 09:12:43,-0.00,0.59,0.00,25.45,29.47,31.98,4.72,26.08,1010.81,2026.99,3227.00,3129.01,3390.01,350.09,342.83,19.31,0000 0000 0000 0000 000000
2015-06-08 09:17:44,-0.01,0.59,0.00,25.42,29.45,31.97,4.70,26.21,1011.15,2026.99,3227.11,3129.19,3390.12,350.07,343.27,19.34,0000 0000 0000 0000 000000
2015-06-08 09:22:46,-0.04,0.59,0.00,25.40,29.43,31.97,4.73,26.15,1010.95,2027.00,3227.54,3129.60,3390.47,350.08,343.05,19.37,0000 0000 0000 0000 000000
2015-06-08 09:27:47,-0.02,0.59,0.00,25.38,29.41,31.96,4.71,26.29,1010.78,2027.04,3227.81,3129.89,3390.81,349.75,342.77,19.40,0000 0000 0000 0000 000000
2015-06-08 09:32:48,0.01,0.59,0.00,25.36,29.40,31.92,4.75,26.19,1010.78,2027.13,3227.96,3129.98,3390.98,350.66,343.63,19.43,0000 0000 0000 0000 000000
2015-06-08 09:37:49,0.01,0.59,0.00,25.34,29.37,31.90,4.70,26.20,1010.79,2027.24,3227.98,3129.99,3390.99,350.06,342.84,19.45,0000 0000 0000 0000 000000
2015-06-08 09:42:51,0.05,0.59,0.00,25.31,29.35,31.88,4.71,26.13,1010.76,2027.45,3227.98,3129.99,3390.99,349.98,343.01,19.48,0000 0000 0000 0000 000000
2015-06-08 09:47:52,0.04,0.59,0.00,25.30,29.33,31.86,4.77,26.18,1010.75,2027.71,3227.99,3129.99,3390.99,349.99,343.04,19.51,0000 0000 0000 0000 000000
2015-06-08 09:52:53,0.03,0.59,0.00,25.28,29.31,31.84,4.69,26.18,1010.76,2027.90,3227.99,3130.01,3390.99,349.86,343.16,19.54,0000 0000 0000 0000 000000
2015-06-08 09:57:55,-0.00,0.60,0.00,25.26,29.29,31.82,4.72,26.38,1010.76,2027.97,3228.00,3130.04,3391.00,349.96,343.15,19.57,0000 0000 0000 0000 000000
2015-06-08 10:02:56,-0.02,0.60,0.00,25.25,29.27,31.80,4.73,26.20,1010.78,2027.98,3228.02,3130.30,3391.06,350.06,343.24,19.60,0000 0000 0000 0000 000000
2015-06-08 10:07:58,-0.02,0.59,0.00,25.22,29.25,31.79,4.72,26.24,1010.77,2027.99,3228.10,3130.78,3391.30,350.01,343.04,19.63,0000 0000 0000 0000 000000
2015-06-08 10:12:59,-0.03,0.59,0.00,25.20,29.23,31.77,4.69,26.12,1010.76,2027.99,3228.36,3130.94,3391.75,349.79,342.87,19.66,0000 0000 0000 0000 000000
2015-06-08 10:18:00,-0.01,0.59,0.00,25.17,29.21,31.74,4.74,26.16,1010.76,2028.00,3228.74,3130.98,3391.96,350.35,343.44,19.69,0000 0000 0000 0000 000000
2015-06-08 10:23:01,-0.00,0.59,0.00,25.16,29.19,31.72,4.66,26.11,1010.71,2028.02,3228.92,3130.99,3391.98,349.62,342.87,19.72,0000 0000 0000 0000 000000
2015-06-08 10:28:03,0.00,0.59,0.00,25.13,29.17,31.69,4.75,26.14,1010.51,2028.03,3228.95,3130.99,3391.99,349.90,343.05,19.75,0000 0000 0000 0000 000000
2015-06-08 10:33:04,0.02,0.59,0.00,25.12,29.15,31.69,4.69,26.12,1010.32,2028.12,3228.96,3130.99,3391.99,350.18,343.18,19.78,0000 0000 0000 0000 000000
2015-06-08 10:38:05,0.04,0.59,0.00,25.11,29.12,31.67,4.74,26.17,1010.30,2028.34,3228.99,3131.05,3392.01,350.25,343.38,19.81,0000 0000 0000 0000 000000
2015-06-08 10:43:07,0.03,0.60,0.00,25.07,29.11,31.64,4.71,26.10,1010.42,2028.73,3228.99,3131.18,3392.06,349.62,342.93,19.84,0000 0000 0000 0000 000000
2015-06-08 10:48:08,-0.01,0.60,0.00,25.06,29.08,31.62,4.72,26.17,1010.78,2028.92,3228.99,3131.63,3392.37,350.19,343.41,19.87,0000 0000 0000 0000 000000
2015-06-08 10:53:09,-0.01,0.60,0.00,25.05,29.06,31.60,4.74,26.20,1010.77,2028.97,3229.00,3131.91,3392.85,349.63,342.80,19.89,0000 0000 0000 0000 000000
2015-06-08 10:58:11,-0.00,0.60,0.00,25.02,29.05,31.59,4.71,26.38,1010.76,2028.98,3229.00,3131.97,3392.94,349.72,343.00,19.92,0000 0000 0000 0000 000000
2015-06-08 11:03:12,-0.00,0.60,0.00,24.99,29.02,31.56,4.69,26.17,1010.74,2028.99,3229.04,3131.98,3392.98,350.30,343.63,19.95,0000 0000 0000 0000 000000
2015-06-08 11:08:13,-0.00,0.59,0.00,24.97,29.00,31.55,4.72,26.24,1010.74,2028.99,3229.28,3131.99,3392.99,350.09,343.38,19.98,0000 0000 0000 0000 000000
2015-06-08 11:13:14,-0.01,0.59,0.00,24.96,28.98,31.53,4.76,26.20,1010.75,2028.99,3229.64,3132.01,3393.02,350.38,343.71,20.01,0000 0000 0000 0000 000000
2015-06-08 11:18:16,-0.00,0.59,0.00,24.93,28.96,31.51,4.71,26.18,1010.76,2029.01,3229.94,3132.04,3393.06,350.28,343.65,20.04,0000 0000 0000 0000 000000
2015-06-08 11:23:17,-0.01,0.59,0.00,24.91,28.94,31.49,4.69,26.18,1010.65,2029.04,3229.95,3132.15,3393.22,349.58,343.10,20.07,0000 0000 0000 0000 000000
2015-06-08 11:28:19,-0.03,0.59,0.00,24.89,28.92,31.48,4.73,26.18,1010.69,2029.10,3229.98,3132.73,3393.79,350.70,343.94,20.10,0000 0000 0000 0000 000000
2015-06-08 11:33:20,0.03,0.59,0.00,24.87,28.90,31.45,4.68,26.21,1010.76,2029.32,3229.99,3132.92,3393.94,349.01,342.28,20.13,0000 0000 0000 0000 000000
2015-06-08 11:38:21,0.06,0.60,0.00,24.86,28.88,31.43,4.75,26.13,1010.76,2029.69,3229.99,3132.97,3393.99,349.69,343.16,20.16,0000 0000 0000 0000 000000
2015-06-08 11:43:22,0.02,0.60,0.00,24.84,28.86,31.41,4.71,26.14,1010.50,2029.93,3230.01,3132.99,3393.99,349.75,343.24,20.19,0000 0000 0000 0000 000000
2015-06-08 11:48:23,-0.00,0.60,0.00,24.82,28.84,31.39,4.69,26.16,1010.30,2029.95,3230.03,3132.99,3394.01,349.81,343.27,20.22,0000 0000 0000 0000 000000
2015-06-08 11:53:24,0.01,0.60,0.00,24.80,28.82,31.36,4.69,26.20,1010.27,2029.98,3230.04,3133.00,3394.02,349.56,343.10,20.25,0000 0000 0000 0000 000000
2015-06-08 11:58:25,-0.00,0.60,0.00,24.76,28.80,31.35,4.71,26.32,1010.27,2029.99,3230.08,3133.03,3394.03,349.66,343.20,20.28,0000 0000 0000 0000 000000
2015-06-08 12:03:26,-0.06,0.60,0.00,24.75,28.77,31.31,4.67,26.23,1010.27,2029.99,3230.60,3133.24,3394.58,349.96,343.42,20.30,0000 0000 0000 0000 000000
2015-06-08 12:08:27,-0.02,0.59,0.00,24.72,28.76,31.30,4.72,26.27,1010.27,2029.99,3230.90,3133.66,3394.95,350.31,343.82,20.33,0000 0000 0000 0000 000000
2015-06-08 12:13:29,-0.01,0.59,0.00,24.70,28.73,31.28,4.72,26.21,1010.26,2029.99,3230.97,3133.95,3394.99,349.61,343.16,20.36,0000 0000 0000 0000 000000
2015-06-08 12:18:30,0.01,0.59,0.00,24.69,28.72,31.25,4.75,26.21,1010.27,2030.01,3230.98,3133.96,3394.99,349.28,342.96,20.39,0000 0000 0000 0000 000000
2015-06-08 12:23:31,0.01,0.59,0.00,24.66,28.70,31.22,4.67,26.12,1010.28,2030.06,3230.99,3133.99,3394.99,349.78,343.51,20.42,0000 0000 0000 0000 000000
2015-06-08 12:28:32,0.03,0.60,0.00,24.63,28.67,31.20,4.78,26.17,1010.27,2030.23,3230.99,3133.99,3395.02,350.14,343.60,20.45,0000 0000 0000 0000 000000
2015-06-08 12:33:33,0.03,0.60,0.00,24.63,28.65,31.17,4.71,26.27,1010.27,2030.44,3231.01,3134.00,3395.11,350.15,343.77,20.48,0000 0000 0000 0000 000000
2015-06-08 12:38:35,0.04,0.60,0.00,24.65,28.63,31.16,4.74,26.15,1010.22,2030.81,3231.07,3134.05,3395.41,350.34,344.06,20.51,0000 0000 0000 0000 000000
2015-06-08 12:43:36,-0.02,0.60,0.00,24.65,28.61,31.14,4.76,26.28,1010.15,2030.94,3231.25,3134.26,3395.86,350.14,343.74,20.54,0000 0000 0000 0000 000000
2015-06-08 12:48:37,-0.03,0.60,0.00,24.65,28.60,31.14,4.70,26.14,1009.91,2030.96,3231.70,3134.75,3395.98,349.86,343.35,20.57,0000 0000 0000 0000 000000
2015-06-08 12:53:39,-0.01,0.60,0.00,24.65,28.57,31.10,4.73,26.30,1010.27,2030.98,3231.96,3134.97,3395.99,350.08,343.71,20.60,0000 0000 0000 0000 000000